KM4NDN Weather Reports


time (UTC)temp
C
wind
direction
speed
KPH
gust
KPH
rain 1hr
cm
rain 24hr
cm
rain mn
cm
humidity
%
barometer
mb
20260504081841 11 228 6.4 20.9 0.00 0.00 0.00 59 1006.4
20260504081337 11 214 19.3 24.1 0.00 0.00 0.00 59 1006.2
20260504080833 11 170 12.9 16.1 0.00 0.00 0.00 60 1006.5
20260504080331 11 184 17.7 25.7 0.00 0.00 0.00 60 1006.4
20260504070258 11 183 6.4 12.9 0.00 0.00 0.00 60 1006.9
20260504060218 11 191 8.0 16.1 0.00 0.00 0.00 60 1007.6
20260504050646 10 209 8.0 17.7 0.00 0.00 0.00 62 1008.6
20260504050143 10 194 4.8 16.1 0.00 0.00 0.00 62 1008.6
20260504045640 10 220 8.0 16.1 0.00 0.00 0.00 63 1008.6
20260504045140 10 182 19.3 24.1 0.00 0.00 0.00 63 1008.7
20260504044638 10 189 8.0 12.9 0.00 0.00 0.00 63 1008.8
20260504044135 10 170 14.5 20.9 0.00 0.00 0.00 63 1008.7
20260504043632 10 166 11.3 20.9 0.00 0.00 0.00 63 1008.9
20260504043129 10 174 14.5 17.7 0.00 0.00 0.00 64 1008.8
20260504042626 10 146 9.7 17.7 0.00 0.00 0.00 64 1008.9
20260504042123 10 181 12.9 22.5 0.00 0.00 0.00 63 1009.0
20260504041619 10 177 9.7 14.5 0.00 0.00 0.00 64 1008.9
20260504041115 10 127 6.4 17.7 0.00 0.00 0.00 64 1008.9
20260504040613 10 194 8.0 12.9 0.00 0.00 0.00 64 1008.8
20260504040109 10 213 6.4 16.1 0.00 0.00 0.00 65 1009.1
20260504035606 10 186 8.0 17.7 0.00 0.00 0.00 65 1009.1
20260504035102 10 118 9.7 16.1 0.00 0.00 0.00 67 1009.3
20260504034600 9 139 8.0 16.1 0.00 0.00 0.00 68 1009.2
20260504034057 9 170 4.8 6.4 0.00 0.00 0.00 71 1009.5
20260504033555 9 142 8.0 12.9 0.00 0.00 0.00 71 1009.4
20260504033052 9 163 3.2 14.5 0.00 0.00 0.00 71 1009.3
20260504032549 9 147 4.8 9.7 0.00 0.00 0.00 71 1009.3
20260504032046 9 144 4.8 9.7 0.00 0.00 0.00 70 1009.5
20260504031543 10 156 3.2 9.7 0.00 0.00 0.00 69 1009.5
20260504031039 10 142 3.2 4.8 0.00 0.00 0.00 69 1009.7
20260504030536 10 159 6.4 9.7 0.00 0.00 0.00 68 1009.7
20260504030032 10 171 8.0 11.3 0.00 0.00 0.00 68 1009.7
20260504025530 10 192 9.7 12.9 0.00 0.00 0.00 67 1009.8
20260504025026 10 137 8.0 11.3 0.00 0.00 0.00 66 1009.9
20260504024523 10 193 6.4 16.1 0.00 0.00 0.00 66 1009.9
20260504024020 10 137 3.2 11.3 0.00 0.00 0.00 66 1010.1
20260504023517 10 149 8.0 12.9 0.00 0.00 0.00 66 1010.0
20260504023013 10 183 3.2 4.8 0.00 0.00 0.00 65 1010.1
20260504022508 10 170 8.0 11.3 0.00 0.00 0.00 65 1010.2
20260504022005 10 178 6.4 11.3 0.00 0.00 0.00 65 1009.9
20260504021503 10 189 8.0 11.3 0.00 0.00 0.00 65 1010.1
20260504021000 10 190 8.0 9.7 0.00 0.00 0.00 66 1010.0
20260504020456 10 157 6.4 9.7 0.00 0.00 0.00 65 1010.0
20260504015953 10 212 8.0 11.3 0.00 0.00 0.00 65 1010.1
20260504015449 10 205 4.8 14.5 0.00 0.00 0.00 64 1010.2
20260504014945 10 195 9.7 12.9 0.00 0.00 0.00 63 1010.0
20260504014441 11 174 11.3 14.5 0.00 0.00 0.00 62 1009.9
20260504013938 11 254 9.7 14.5 0.00 0.00 0.00 62 1009.9
20260504013437 11 204 11.3 14.5 0.00 0.00 0.00 61 1010.2
20260504012932 11 219 6.4 22.5 0.00 0.00 0.00 61 1009.9
20260504012431 11 170 9.7 12.9 0.00 0.00 0.00 60 1010.0
20260504011928 11 193 14.5 16.1 0.00 0.00 0.00 59 1010.3
20260504011425 11 214 6.4 16.1 0.00 0.00 0.00 59 1010.2
20260504010920 11 230 16.1 22.5 0.00 0.00 0.00 59 1010.1
20260504010417 11 175 6.4 12.9 0.00 0.00 0.00 60 1010.4
20260504005913 11 236 3.2 11.3 0.00 0.00 0.00 61 1010.1
20260504005410 11 247 12.9 20.9 0.00 0.00 0.00 59 1010.3
20260504004908 11 244 8.0 14.5 0.00 0.00 0.00 58 1010.4
20260504004405 11 244 9.7 16.1 0.00 0.00 0.00 57 1010.3
20260504003901 11 217 27.4 30.6 0.00 0.00 0.00 56 1010.2
20260504003358 11 224 16.1 24.1 0.00 0.00 0.00 57 1010.3
20260504002855 11 210 19.3 30.6 0.00 0.00 0.00 56 1010.2
20260504002351 12 237 14.5 35.4 0.00 0.00 0.00 57 1010.2
20260504001849 12 199 16.1 22.5 0.00 0.00 0.00 59 1010.1
20260504001346 12 247 11.3 25.7 0.00 0.00 0.00 59 1010.2
20260504000843 12 264 17.7 29.0 0.00 0.00 0.00 59 1010.2
20260504000340 12 248 16.1 20.9 0.00 0.00 0.00 58 1010.1
20260503235838 12 250 25.7 35.4 0.00 0.00 0.00 57 1010.2
20260503235335 13 260 20.9 49.9 0.00 0.00 0.00 57 1010.1
20260503234832 13 217 22.5 27.4 0.00 0.00 0.00 57 1009.9
20260503234330 13 207 16.1 29.0 0.00 0.00 0.00 54 1009.9
20260503233828 14 239 11.3 20.9 0.00 0.00 0.00 40 1010.0
20260503233323 14 213 12.9 17.7 0.00 0.00 0.00 38 1009.5
20260503232820 14 243 14.5 25.7 0.00 0.00 0.00 37 1009.7
20260503232318 15 250 14.5 24.1 0.00 0.00 0.00 37 1009.7
20260503231815 15 232 20.9 25.7 0.00 0.00 0.00 35 1009.9
20260503231312 15 240 33.8 46.7 0.00 0.00 0.00 35 1009.8
20260503230808 15 255 29.0 38.6 0.00 0.00 0.00 35 1009.9
20260503230305 15 232 22.5 33.8 0.00 0.00 0.00 36 1009.9
20260503225803 15 225 22.5 40.2 0.00 0.00 0.00 36 1009.9
20260503225258 15 261 20.9 30.6 0.00 0.00 0.00 36 1010.0
20260503224755 15 236 17.7 30.6 0.00 0.00 0.00 36 1009.6
20260503224253 15 228 17.7 27.4 0.00 0.00 0.00 36 1010.0
20260503223750 16 214 20.9 29.0 0.00 0.00 0.00 36 1009.9
20260503223248 15 210 16.1 33.8 0.00 0.00 0.00 35 1009.9
20260503222743 16 190 25.7 38.6 0.00 0.00 0.00 34 1009.9
20260503222242 16 215 17.7 35.4 0.00 0.00 0.00 35 1009.9
20260503221740 16 214 27.4 30.6 0.00 0.00 0.00 34 1009.9
20260503221237 16 256 32.2 37.0 0.00 0.00 0.00 34 1009.9
20260503220733 16 242 24.1 37.0 0.00 0.00 0.00 35 1009.8
20260503220231 15 213 16.1 27.4 0.00 0.00 0.00 36 1010.0
20260503215727 15 186 14.5 35.4 0.00 0.00 0.00 36 1010.1
20260503215224 16 210 19.3 27.4 0.00 0.00 0.00 34 1010.1
20260503214722 16 226 14.5 33.8 0.00 0.00 0.00 36 1009.9
20260503214219 16 223 16.1 17.7 0.00 0.00 0.00 37 1010.1
20260503213717 15 237 19.3 24.1 0.00 0.00 0.00 36 1010.1
20260503213214 16 239 22.5 25.7 0.00 0.00 0.00 34 1010.0
20260503212711 16 216 14.5 20.9 0.00 0.00 0.00 37 1010.0
20260503212208 16 235 16.1 20.9 0.00 0.00 0.00 36 1010.2
20260503211706 16 215 22.5 30.6 0.00 0.00 0.00 35 1010.1
20260503211201 16 218 20.9 37.0 0.00 0.00 0.00 36 1010.0
20260503210658 16 201 30.6 40.2 0.00 0.00 0.00 33 1010.1
20260503210155 16 252 22.5 25.7 0.00 0.00 0.00 34 1010.2
20260503205650 16 200 12.9 33.8 0.00 0.00 0.00 35 1010.4
20260503205147 16 214 25.7 29.0 0.00 0.00 0.00 33 1010.3
20260503204643 16 223 20.9 37.0 0.00 0.00 0.00 34 1010.2
20260503204141 16 239 24.1 30.6 0.00 0.00 0.00 34 1010.3
20260503203638 16 275 20.9 40.2 0.00 0.00 0.00 34 1010.5
20260503203136 16 221 24.1 30.6 0.00 0.00 0.00 33 1010.5
20260503202633 16 221 19.3 25.7 0.00 0.00 0.00 35 1010.5
20260503202131 16 212 19.3 41.8 0.00 0.00 0.00 35 1010.5
20260503201628 16 242 20.9 22.5 0.00 0.00 0.00 36 1010.5
20260503201126 15 223 19.3 33.8 0.00 0.00 0.00 34 1010.7
20260503200621 16 223 19.3 37.0 0.00 0.00 0.00 33 1010.7
20260503200118 16 249 27.4 43.5 0.00 0.00 0.00 34 1010.5
20260503195615 16 222 20.9 29.0 0.00 0.00 0.00 33 1010.8
20260503195112 16 243 24.1 37.0 0.00 0.00 0.00 34 1010.7
20260503194609 16 213 25.7 41.8 0.00 0.00 0.00 33 1010.7
20260503194104 16 236 24.1 35.4 0.00 0.00 0.00 35 1010.9
20260503193601 16 215 25.7 35.4 0.00 0.00 0.00 35 1011.0
20260503193056 16 248 25.7 30.6 0.00 0.00 0.00 32 1011.2
20260503192552 16 223 29.0 38.6 0.00 0.00 0.00 34 1011.0
20260503192048 16 220 17.7 25.7 0.00 0.00 0.00 36 1011.3
20260503191545 16 249 24.1 30.6 0.00 0.00 0.00 35 1011.4
20260503191042 16 175 20.9 29.0 0.00 0.00 0.00 33 1011.3
20260503190539 16 225 14.5 33.8 0.00 0.00 0.00 35 1011.6
20260503190037 16 233 19.3 29.0 0.00 0.00 0.00 34 1011.4
20260503185533 16 241 30.6 40.2 0.00 0.00 0.00 33 1011.4
20260503185032 16 207 19.3 24.1 0.00 0.00 0.00 34 1011.9
20260503184529 16 236 17.7 33.8 0.00 0.00 0.00 35 1011.8
20260503184026 16 192 17.7 27.4 0.00 0.00 0.00 36 1011.8
20260503183522 16 237 27.4 46.7 0.00 0.00 0.00 34 1012.0
20260503183019 16 245 24.1 29.0 0.00 0.00 0.00 36 1011.8
20260503182518 16 275 12.9 33.8 0.00 0.00 0.00 37 1011.9
20260503182015 16 225 14.5 17.7 0.00 0.00 0.00 36 1011.8
20260503181512 16 182 29.0 33.8 0.00 0.00 0.00 35 1012.0
20260503181008 16 248 29.0 38.6 0.00 0.00 0.00 36 1011.9
20260503180506 15 214 16.1 33.8 0.00 0.00 0.00 37 1012.1
20260503180003 16 269 27.4 30.6 0.00 0.00 0.00 34 1012.1
20260503175501 15 202 14.5 22.5 0.00 0.00 0.00 37 1012.2
20260503174956 15 207 14.5 22.5 0.00 0.00 0.00 38 1012.4
20260503174455 16 252 22.5 27.4 0.00 0.00 0.00 36 1012.3
20260503173950 15 201 16.1 20.9 0.00 0.00 0.00 35 1012.3
20260503173446 15 266 19.3 22.5 0.00 0.00 0.00 37 1012.6
20260503172943 15 220 37.0 40.2 0.00 0.00 0.00 34 1012.8
20260503172440 15 233 25.7 33.8 0.00 0.00 0.00 37 1012.6
20260503171937 15 255 22.5 29.0 0.00 0.00 0.00 41 1012.8
20260503171433 15 242 20.9 25.7 0.00 0.00 0.00 40 1012.7
20260503170931 15 291 14.5 22.5 0.00 0.00 0.00 44 1012.9
20260503170427 15 245 22.5 25.7 0.00 0.00 0.00 41 1012.9
20260503150819 12 220 24.1 27.4 0.00 0.00 0.00 47 1014.1
20260503150315 12 233 14.5 24.1 0.00 0.00 0.00 48 1014.0
20260503140240 10 220 16.1 25.7 0.00 0.00 0.00 50 1014.2
20260503131209 8 240 14.5 29.0 0.00 0.00 0.00 54 1014.2
20260503130707 8 221 11.3 25.7 0.00 0.00 0.00 53 1014.3
20260503130204 8 196 12.9 17.7 0.00 0.00 0.00 55 1014.5
20260503120130 5 222 9.7 16.1 0.00 0.00 0.00 63 1014.8
20260503110557 2 197 3.2 4.8 0.00 0.00 0.00 73 1014.4